RYR48W LEZL-LEST

Flight info

Callsign RYR48W
Flight time 1h 10m
Altitude 34000
Route SANTA M744 ROSAL DCT LASIB DCT AGADO
Aircraft B738/M-SDE2E3FGHIRWXY/LB1

Departure

Time 2026-04-22 07:41
Airport Seville Airport (LEZL)

Arrival

Time 2026-04-22 08:52
Airport Santiago-Rosalía de Castro Airport (LEST)
Time Latitude Longitude Altitude Speed Heading
2026-04-22 07:15 37.42258 -5.89901 96 ft 0 kts 344°
2026-04-22 07:33 37.42257 -5.89901 97 ft 2 kts 344°
2026-04-22 07:34 37.42233 -5.89892 97 ft 4 kts 343°
2026-04-22 07:34 37.42207 -5.89882 98 ft 4 kts 346°
2026-04-22 07:34 37.42181 -5.89875 99 ft 4 kts 347°
2026-04-22 07:34 37.42160 -5.89869 99 ft 0 kts 348°
2026-04-22 07:36 37.42162 -5.89871 99 ft 2 kts 338°
2026-04-22 07:36 37.42167 -5.89891 98 ft 4 kts 258°
2026-04-22 07:37 37.42142 -5.89917 99 ft 6 kts 217°
2026-04-22 07:37 37.42091 -5.89966 101 ft 15 kts 212°
2026-04-22 07:37 37.42037 -5.90082 101 ft 16 kts 232°
2026-04-22 07:37 37.41981 -5.90184 103 ft 15 kts 266°
2026-04-22 07:38 37.41985 -5.90317 101 ft 15 kts 266°
2026-04-22 07:38 37.41978 -5.90448 99 ft 16 kts 268°
2026-04-22 07:38 37.41978 -5.90602 98 ft 19 kts 270°
2026-04-22 07:38 37.41977 -5.90782 94 ft 22 kts 269°
2026-04-22 07:39 37.41955 -5.90972 89 ft 22 kts 244°
2026-04-22 07:39 37.41879 -5.91136 89 ft 20 kts 236°
2026-04-22 07:39 37.41783 -5.91153 88 ft 15 kts 101°
2026-04-22 07:39 37.41788 -5.91066 90 ft 0 kts 89°
2026-04-22 07:40 37.41789 -5.91051 90 ft 15 kts 89°
2026-04-22 07:40 37.41793 -5.90598 96 ft 88 kts 89°
2026-04-22 07:40 37.41795 -5.89542 104 ft 150 kts 91°
2026-04-22 07:41 37.41789 -5.88161 596 ft 161 kts 90°
2026-04-22 07:41 37.41782 -5.86754 1390 ft 162 kts 90°
2026-04-22 07:41 37.41789 -5.85305 1931 ft 179 kts 90°
2026-04-22 07:41 37.41774 -5.83611 2163 ft 204 kts 91°
2026-04-22 07:42 37.41794 -5.81714 2325 ft 229 kts 81°
2026-04-22 07:42 37.42593 -5.79902 2505 ft 254 kts 39°
2026-04-22 07:42 37.44243 -5.79073 3062 ft 263 kts
2026-04-22 07:42 37.45997 -5.79644 3739 ft 265 kts 325°
2026-04-22 07:43 37.47156 -5.81385 4480 ft 263 kts 290°
2026-04-22 07:43 37.47580 -5.83622 5199 ft 264 kts 279°
2026-04-22 07:43 37.47991 -5.85868 5908 ft 268 kts 283°
2026-04-22 07:43 37.48572 -5.88148 6658 ft 272 kts 287°
2026-04-22 07:44 37.49288 -5.90377 7363 ft 278 kts 290°
2026-04-22 07:44 37.50118 -5.92605 8041 ft 284 kts 292°
2026-04-22 07:44 37.51031 -5.94835 8758 ft 289 kts 293°
2026-04-22 07:44 37.52005 -5.97086 9454 ft 295 kts 294°
2026-04-22 07:45 37.53018 -5.99346 10229 ft 297 kts 294°
2026-04-22 07:45 37.54063 -6.01642 10592 ft 317 kts 294°
2026-04-22 07:45 37.55198 -6.04114 10920 ft 334 kts 294°
2026-04-22 07:45 37.56386 -6.06672 11555 ft 340 kts 294°
2026-04-22 07:46 37.57581 -6.09233 12430 ft 338 kts 294°
2026-04-22 07:46 37.58770 -6.11788 13322 ft 337 kts 294°
2026-04-22 07:46 37.59955 -6.14359 14042 ft 342 kts 294°
2026-04-22 07:46 37.61138 -6.16980 14815 ft 343 kts 294°
2026-04-22 07:47 37.62297 -6.19554 15947 ft 335 kts 294°
2026-04-22 07:47 37.63443 -6.22105 16795 ft 335 kts 294°
2026-04-22 07:47 37.64600 -6.24682 17496 ft 339 kts 295°
2026-04-22 07:47 37.65768 -6.27281 18189 ft 342 kts 295°
2026-04-22 07:48 37.66944 -6.29897 18882 ft 344 kts 295°
2026-04-22 07:48 37.68139 -6.32575 19246 ft 357 kts 295°
2026-04-22 07:48 37.68950 -6.34403 19541 ft 363 kts 295°
2026-04-22 07:48 37.70191 -6.37202 20108 ft 367 kts 295°
2026-04-22 07:49 37.71444 -6.40025 20774 ft 369 kts 295°
2026-04-22 07:49 37.72701 -6.42859 21376 ft 371 kts 296°
2026-04-22 07:49 37.73969 -6.45721 21918 ft 375 kts 296°
2026-04-22 07:49 37.75247 -6.48608 22450 ft 378 kts 296°
2026-04-22 07:50 37.76535 -6.51521 22989 ft 381 kts 296°
2026-04-22 07:50 37.77833 -6.54455 23513 ft 383 kts 296°
2026-04-22 07:50 37.79140 -6.57414 24022 ft 387 kts 296°
2026-04-22 07:50 37.80452 -6.60388 24521 ft 389 kts 296°
2026-04-22 07:51 37.81774 -6.63387 25050 ft 391 kts 296°
2026-04-22 07:51 37.83100 -6.66398 25554 ft 393 kts 296°
2026-04-22 07:51 37.84432 -6.69426 25999 ft 395 kts 296°
2026-04-22 07:51 37.85771 -6.72474 26456 ft 397 kts 296°
2026-04-22 07:52 37.87115 -6.75535 26891 ft 399 kts 296°
2026-04-22 07:52 37.88465 -6.78613 27298 ft 401 kts 296°
2026-04-22 07:52 37.89819 -6.81702 27820 ft 400 kts 296°
2026-04-22 07:52 37.91162 -6.84767 28443 ft 396 kts 297°
2026-04-22 07:53 37.92494 -6.87811 29062 ft 393 kts 296°
2026-04-22 07:53 37.93808 -6.90818 29641 ft 390 kts 297°
2026-04-22 07:53 37.95116 -6.93817 30145 ft 388 kts 297°
2026-04-22 07:53 37.96420 -6.96809 30598 ft 388 kts 297°
2026-04-22 07:54 37.97725 -6.99804 30994 ft 388 kts 297°
2026-04-22 07:54 37.99031 -7.02802 31377 ft 389 kts 297°
2026-04-22 07:54 38.00338 -7.05805 31822 ft 388 kts 297°
2026-04-22 07:54 38.01569 -7.08812 31989 ft 392 kts 291°
2026-04-22 07:55 38.03006 -7.15453 32021 ft 391 kts 282°
2026-04-22 07:55 38.03975 -7.18661 32013 ft 390 kts 299°
2026-04-22 07:55 38.05680 -7.21337 32023 ft 394 kts 315°
2026-04-22 07:56 38.07916 -7.23379 32020 ft 401 kts 330°
2026-04-22 07:56 38.10558 -7.24602 32038 ft 407 kts 341°
2026-04-22 07:56 38.16073 -7.26343 32025 ft 410 kts 343°
2026-04-22 07:57 38.21632 -7.27984 32017 ft 411 kts 343°
2026-04-22 07:57 38.27191 -7.29675 32018 ft 411 kts 342°
2026-04-22 07:58 38.32738 -7.31406 32015 ft 410 kts 342°
2026-04-22 07:58 38.38273 -7.33151 32016 ft 409 kts 342°
2026-04-22 07:59 38.43789 -7.34897 32018 ft 408 kts 342°
2026-04-22 07:59 38.49286 -7.36639 32018 ft 407 kts 342°
2026-04-22 08:00 38.54781 -7.38385 32019 ft 406 kts 342°
2026-04-22 08:00 38.60269 -7.40130 32022 ft 406 kts 342°
2026-04-22 08:01 38.65755 -7.41879 32020 ft 406 kts 342°
2026-04-22 08:01 38.71248 -7.43633 32019 ft 407 kts 342°
2026-04-22 08:02 38.76746 -7.45388 32020 ft 407 kts 342°
2026-04-22 08:02 38.82245 -7.47147 32016 ft 407 kts 342°
2026-04-22 08:03 38.87701 -7.48895 32020 ft 407 kts 342°
2026-04-22 08:03 38.93202 -7.50662 32016 ft 407 kts 342°
2026-04-22 08:04 38.98688 -7.52424 32020 ft 406 kts 342°
2026-04-22 08:04 39.04176 -7.54192 32016 ft 406 kts 342°
2026-04-22 08:05 39.09661 -7.55963 32022 ft 407 kts 342°
2026-04-22 08:05 39.15150 -7.57736 32019 ft 407 kts 342°
2026-04-22 08:06 39.20650 -7.59516 32024 ft 407 kts 342°
2026-04-22 08:06 39.26142 -7.61296 32016 ft 407 kts 341°
2026-04-22 08:07 39.31636 -7.63079 32017 ft 407 kts 341°
2026-04-22 08:07 39.37120 -7.64863 32021 ft 407 kts 341°
2026-04-22 08:08 39.42583 -7.66642 32015 ft 407 kts 341°
2026-04-22 08:08 39.48113 -7.68444 32006 ft 407 kts 341°
2026-04-22 08:09 39.53563 -7.70225 32007 ft 406 kts 341°
2026-04-22 08:09 39.59034 -7.72016 32007 ft 406 kts 341°
2026-04-22 08:10 39.64509 -7.73811 32009 ft 406 kts 341°
2026-04-22 08:10 39.69989 -7.75610 32012 ft 406 kts 341°
2026-04-22 08:11 39.75482 -7.77418 32002 ft 407 kts 341°
2026-04-22 08:11 39.80980 -7.79230 31993 ft 408 kts 341°
2026-04-22 08:12 39.86489 -7.81047 32006 ft 408 kts 341°
2026-04-22 08:12 39.91997 -7.82868 31994 ft 408 kts 341°
2026-04-22 08:13 39.97494 -7.84687 32000 ft 408 kts 341°
2026-04-22 08:13 40.02991 -7.86510 31996 ft 407 kts 341°
2026-04-22 08:14 40.08484 -7.88336 32015 ft 407 kts 341°
2026-04-22 08:14 40.13975 -7.90163 32016 ft 408 kts 341°
2026-04-22 08:15 40.19485 -7.91999 32000 ft 408 kts 341°
2026-04-22 08:15 40.24948 -7.93821 32010 ft 407 kts 341°
2026-04-22 08:16 40.30438 -7.95657 32003 ft 407 kts 341°
2026-04-22 08:16 40.35916 -7.97492 32007 ft 406 kts 341°
2026-04-22 08:17 40.41387 -7.99329 32013 ft 406 kts 341°
2026-04-22 08:17 40.46866 -8.01171 32007 ft 406 kts 341°
2026-04-22 08:18 40.52343 -8.03015 32012 ft 407 kts 341°
2026-04-22 08:18 40.57829 -8.04866 32006 ft 408 kts 341°
2026-04-22 08:19 40.63330 -8.06724 32000 ft 409 kts 341°
2026-04-22 08:19 40.68843 -8.08589 31989 ft 409 kts 341°
2026-04-22 08:20 40.74359 -8.10459 32006 ft 410 kts 341°
2026-04-22 08:20 40.79886 -8.12337 32000 ft 411 kts 340°
2026-04-22 08:21 40.85429 -8.14221 31985 ft 411 kts 341°
2026-04-22 08:21 40.90961 -8.16105 32002 ft 411 kts 340°
2026-04-22 08:22 40.96462 -8.17982 31997 ft 411 kts 340°
2026-04-22 08:22 41.02041 -8.19890 31986 ft 412 kts 340°
2026-04-22 08:23 41.07467 -8.21744 31979 ft 400 kts 340°
2026-04-22 08:23 41.12842 -8.23584 31982 ft 400 kts 340°
2026-04-22 08:24 41.15544 -8.24516 31666 ft 400 kts 340°
2026-04-22 08:24 41.18214 -8.25433 31378 ft 394 kts 340°
2026-04-22 08:24 41.20864 -8.26345 31027 ft 391 kts 340°
2026-04-22 08:24 41.23488 -8.27248 30668 ft 389 kts 340°
2026-04-22 08:25 41.26109 -8.28151 30307 ft 387 kts 340°
2026-04-22 08:25 41.28699 -8.29045 29952 ft 384 kts 340°
2026-04-22 08:25 41.31279 -8.29936 29593 ft 382 kts 340°
2026-04-22 08:25 41.33843 -8.30822 29223 ft 379 kts 340°
2026-04-22 08:26 41.36389 -8.31703 28844 ft 377 kts 340°
2026-04-22 08:26 41.38917 -8.32578 28488 ft 374 kts 340°
2026-04-22 08:26 41.41431 -8.33448 28120 ft 372 kts 340°
2026-04-22 08:26 41.43928 -8.34312 27749 ft 370 kts 341°
2026-04-22 08:27 41.46518 -8.34799 27028 ft 382 kts 353°
2026-04-22 08:27 41.49171 -8.34926 26579 ft 382 kts 353°
2026-04-22 08:27 41.51814 -8.35038 26217 ft 380 kts 353°
2026-04-22 08:27 41.54451 -8.35151 25836 ft 378 kts 353°
2026-04-22 08:28 41.57065 -8.35269 25480 ft 375 kts 353°
2026-04-22 08:28 41.59674 -8.35393 25119 ft 373 kts 353°
2026-04-22 08:28 41.62261 -8.35521 24758 ft 371 kts 353°
2026-04-22 08:28 41.64837 -8.35653 24406 ft 369 kts 353°
2026-04-22 08:29 41.67394 -8.35787 24056 ft 367 kts 353°
2026-04-22 08:29 41.69943 -8.35922 23703 ft 365 kts 353°
2026-04-22 08:29 41.72469 -8.36055 23350 ft 363 kts 353°
2026-04-22 08:29 41.74984 -8.36188 23011 ft 360 kts 353°
2026-04-22 08:30 41.77482 -8.36320 22661 ft 358 kts 353°
2026-04-22 08:30 41.79970 -8.36452 22315 ft 356 kts 353°
2026-04-22 08:30 41.82431 -8.36582 21984 ft 354 kts 353°
2026-04-22 08:30 41.84888 -8.36712 21642 ft 352 kts 353°
2026-04-22 08:31 41.87329 -8.36843 21296 ft 350 kts 353°
2026-04-22 08:31 41.89729 -8.36971 20973 ft 349 kts 353°
2026-04-22 08:31 41.94556 -8.37228 20301 ft 345 kts 353°
2026-04-22 08:32 41.96951 -8.37355 19957 ft 344 kts 353°
2026-04-22 08:32 41.99337 -8.37483 19627 ft 341 kts 353°
2026-04-22 08:32 42.01702 -8.37609 19293 ft 340 kts 353°
2026-04-22 08:32 42.04060 -8.37734 18959 ft 338 kts 353°
2026-04-22 08:33 42.06406 -8.37860 18630 ft 336 kts 353°
2026-04-22 08:33 42.08736 -8.37984 18298 ft 334 kts 353°
2026-04-22 08:33 42.11054 -8.38108 17976 ft 332 kts 353°
2026-04-22 08:33 42.13360 -8.38232 17653 ft 331 kts 353°
2026-04-22 08:34 42.15654 -8.38355 17319 ft 329 kts 353°
2026-04-22 08:34 42.17939 -8.38477 16998 ft 328 kts 353°
2026-04-22 08:34 42.20218 -8.38600 16674 ft 326 kts 353°
2026-04-22 08:34 42.22483 -8.38722 16345 ft 325 kts 353°
2026-04-22 08:35 42.24741 -8.38844 16025 ft 324 kts 353°
2026-04-22 08:35 42.26983 -8.38964 15700 ft 322 kts 353°
2026-04-22 08:35 42.29221 -8.39085 15383 ft 321 kts 353°
2026-04-22 08:35 42.30694 -8.39164 15176 ft 320 kts 353°
2026-04-22 08:36 42.32916 -8.39283 14843 ft 319 kts 353°
2026-04-22 08:36 42.35124 -8.39403 14532 ft 317 kts 353°
2026-04-22 08:36 42.37329 -8.39522 14219 ft 316 kts 353°
2026-04-22 08:36 42.39520 -8.39642 13892 ft 315 kts 353°
2026-04-22 08:37 42.42418 -8.39798 13466 ft 314 kts 353°
2026-04-22 08:37 42.43887 -8.39877 13257 ft 313 kts 353°
2026-04-22 08:37 42.46058 -8.39994 12936 ft 311 kts 353°
2026-04-22 08:37 42.48215 -8.40109 12637 ft 309 kts 353°
2026-04-22 08:38 42.50357 -8.40224 12321 ft 308 kts 353°
2026-04-22 08:38 42.52500 -8.40342 12002 ft 307 kts 353°
2026-04-22 08:38 42.54626 -8.40458 11696 ft 305 kts 353°
2026-04-22 08:38 42.56746 -8.40573 11385 ft 304 kts 354°
2026-04-22 08:39 42.58854 -8.40686 11080 ft 302 kts 354°
2026-04-22 08:39 42.60954 -8.40798 10771 ft 301 kts 354°
2026-04-22 08:39 42.63018 -8.40912 10475 ft 300 kts 354°
2026-04-22 08:39 42.65100 -8.41029 10160 ft 299 kts 354°
2026-04-22 08:40 42.67159 -8.41140 10001 ft 290 kts 354°
2026-04-22 08:40 42.69156 -8.41245 9722 ft 286 kts 354°
2026-04-22 08:40 42.71139 -8.41353 9451 ft 284 kts 354°
2026-04-22 08:40 42.73112 -8.41462 9154 ft 284 kts 355°
2026-04-22 08:41 42.75082 -8.41570 8866 ft 283 kts 355°
2026-04-22 08:41 42.77043 -8.41679 8585 ft 282 kts 355°
2026-04-22 08:41 42.78996 -8.41785 8312 ft 281 kts 355°
2026-04-22 08:41 42.80952 -8.41894 8019 ft 280 kts 355°
2026-04-22 08:42 42.82894 -8.42002 7732 ft 279 kts 355°
2026-04-22 08:42 42.84819 -8.42109 7443 ft 278 kts 355°
2026-04-22 08:42 42.86753 -8.42215 7187 ft 276 kts 355°
2026-04-22 08:42 42.88672 -8.42319 6894 ft 277 kts 355°
2026-04-22 08:43 42.90594 -8.42423 6609 ft 275 kts 355°
2026-04-22 08:43 42.92508 -8.42534 6346 ft 274 kts 353°
2026-04-22 08:43 42.94376 -8.42967 6060 ft 272 kts 343°
2026-04-22 08:43 42.96209 -8.43609 5778 ft 271 kts 342°
2026-04-22 08:44 42.98010 -8.44244 5502 ft 264 kts 342°
2026-04-22 08:44 42.99734 -8.44957 5333 ft 253 kts 328°
2026-04-22 08:44 43.01016 -8.46458 5230 ft 238 kts 304°
2026-04-22 08:44 43.02243 -8.47960 5102 ft 245 kts 334°
2026-04-22 08:45 43.03939 -8.48188 5051 ft 249 kts
2026-04-22 08:45 43.05649 -8.48081 4936 ft 241 kts 356°
2026-04-22 08:45 43.07276 -8.48176 4829 ft 226 kts 352°
2026-04-22 08:45 43.08803 -8.48358 4586 ft 215 kts 353°
2026-04-22 08:46 43.10192 -8.47930 4425 ft 203 kts 36°
2026-04-22 08:46 43.10907 -8.46387 4424 ft 189 kts 90°
2026-04-22 08:46 43.10525 -8.44818 4449 ft 174 kts 143°
2026-04-22 08:46 43.09447 -8.44347 4418 ft 167 kts 195°
2026-04-22 08:47 43.08546 -8.45268 4306 ft 165 kts 233°
2026-04-22 08:47 43.07671 -8.46195 4188 ft 163 kts 189°
2026-04-22 08:47 43.06541 -8.46079 4169 ft 165 kts 178°
2026-04-22 08:47 43.05389 -8.45932 4016 ft 168 kts 178°
2026-04-22 08:48 43.04248 -8.45766 3797 ft 160 kts 177°
2026-04-22 08:48 43.03177 -8.45589 3608 ft 151 kts 177°
2026-04-22 08:48 43.02151 -8.45410 3433 ft 144 kts 176°
2026-04-22 08:48 43.01160 -8.45253 3216 ft 144 kts 177°
2026-04-22 08:49 43.00155 -8.45023 3032 ft 148 kts 172°
2026-04-22 08:49 42.99148 -8.44710 2830 ft 148 kts 170°
2026-04-22 08:49 42.98155 -8.44377 2638 ft 146 kts 169°
2026-04-22 08:49 42.97167 -8.44049 2455 ft 146 kts 169°
2026-04-22 08:50 42.96184 -8.43717 2243 ft 145 kts 169°
2026-04-22 08:50 42.95216 -8.43390 2055 ft 142 kts 168°
2026-04-22 08:50 42.94252 -8.43067 1861 ft 143 kts 168°
2026-04-22 08:50 42.93284 -8.42740 1682 ft 144 kts 168°
2026-04-22 08:51 42.92310 -8.42410 1449 ft 146 kts 167°
2026-04-22 08:51 42.91323 -8.42067 1245 ft 145 kts 167°
2026-04-22 08:51 42.90374 -8.41752 1189 ft 129 kts 167°
2026-04-22 08:51 42.89706 -8.41537 1192 ft 68 kts 166°
2026-04-22 08:52 42.89430 -8.41446 1198 ft 27 kts 166°
2026-04-22 08:52 42.89250 -8.41388 1199 ft 26 kts 167°
2026-04-22 08:52 42.89083 -8.41329 1201 ft 24 kts 166°
2026-04-22 08:52 42.88926 -8.41276 1203 ft 23 kts 166°
2026-04-22 08:53 42.88776 -8.41225 1205 ft 22 kts 166°
2026-04-22 08:53 42.88629 -8.41176 1207 ft 21 kts 166°
2026-04-22 08:53 42.88488 -8.41128 1211 ft 21 kts 166°
2026-04-22 08:53 42.88393 -8.41144 1211 ft 13 kts 226°
2026-04-22 08:54 42.88361 -8.41255 1209 ft 13 kts 266°
2026-04-22 08:54 42.88418 -8.41339 1208 ft 15 kts 343°
2026-04-22 08:54 42.88519 -8.41379 1207 ft 15 kts 345°
2026-04-22 08:54 42.88619 -8.41407 1206 ft 14 kts 346°
2026-04-22 08:55 42.88714 -8.41439 1205 ft 14 kts 345°
2026-04-22 08:55 42.88804 -8.41470 1204 ft 13 kts 346°
2026-04-22 08:55 42.88908 -8.41504 1203 ft 18 kts 348°
2026-04-22 08:55 42.89042 -8.41550 1201 ft 13 kts 343°
2026-04-22 08:56 42.89100 -8.41635 1200 ft 13 kts 295°
2026-04-22 08:56 42.89176 -8.41694 1199 ft 13 kts 345°
2026-04-22 08:56 42.89248 -8.41718 1198 ft 8 kts 335°
2026-04-22 08:56 42.89254 -8.41787 1198 ft 8 kts 271°
2026-04-22 08:57 42.89262 -8.41825 1198 ft 0 kts 287°